Tracking 31030 objects as of 16-Jul-2025
HD Live streaming from Space Station
objects crossing your sky now

CZ-6A DEB

Track CZ-6A DEB now!
10-day predictions


NORAD ID: 54566
Int'l Code: 2022-151LS
Perigee: 835.0 km
Apogee: 914.1 km
Inclination: 98.8 °
Period: 102.3 minutes
Semi major axis: 7245 km
RCS: Unknown
Launch date: November 11, 2022
Source: People's Republic of China (PRC)
Launch site: Taiyaun Space Center, China (TSC)

Note: This is SATELLITE DEBRIS
Your satellite tracking list
Your tracking list is empty




NASA's NSSDC Master Catalog

Two Line Element Set (TLE):
1 54566U 22151LS  25196.93894664  .00000122  00000-0  96754-4 0  9999
2 54566  98.8320 193.8258 0054571 218.3946 141.3334 14.07649621137122
Source of the keplerian elements: AFSPC